Voltar ao catálogo

STARLINK-1641

AtivoComunicaçõesVLEO
NORAD 46174·PAYLOAD·🇺🇸 United States

Lançado Aug 18, 2020 de Cape Canaveral Space Force Station

Loading…

Próximas Passagens (próximas 24 horas)

TLE

AtualizadoSource: CelesTrak SupGP

Época: Sep 14, 2026, 22:10 UTC

1 46174C 20057BK  26257.92409722  .00251470  00000+0  10318-2 0  2573
2 46174  53.0365  77.9440 0002708 213.1242 287.1586 15.85165619    14

Acompanhe STARLINK-1641 em tempo real com AllMySat

Download on the App Store